Temperature
21 21 20 19 19 19 21 23 24 24 24 25 24 24 23 22 22 21 21 21 21 20 20 19 19 19 20 20 20 19 19 19 19 19 19 19 19 19 18 18 18 18 18 18 18 18 18 18 18
21 21 20 19 19 21 22 24 24 24 24 24 24 24 23 21 21 21 20 21 21 20 20 20 20 20 20 20 20 19 19 19 19 19 19 19 19 18 18 18 18 18 18 18 18 18 18 18 18
21 20 20 18 20 21 23 24 24 24 25 25 24 23 22 21 21 21 21 21 21 20 20 20 20 20 20 20 20 19 19 19 19 19 19 19 18 18 18 18 18 18 18 18 18 18 18 18 17
21 20 20 19 22 22 23 24 24 24 25 25 24 22 22 21 22 22 22 21 21 21 20 20 20 20 20 20 20 20 19 19 19 19 19 18 18 18 18 18 18 18 18 18 17 17 17 17 17
21 20 19 19 21 22 23 24 25 24 24 24 23 22 21 21 22 22 22 21 21 21 20 20 20 20 20 20 20 19 19 19 19 19 19 18 18 18 18 18 18 18 18 17 17 17 17 17 17
21 18 19 20 22 23 24 25 25 24 24 24 23 21 20 21 22 22 22 21 21 21 20 20 20 20 20 19 19 19 19 19 19 19 19 18 18 18 18 18 18 18 18 17 17 17 17 17 17
20 18 20 21 22 23 25 25 25 24 24 24 23 20 20 20 22 22 21 21 21 21 20 20 20 19 19 19 19 19 19 19 19 19 18 18 18 18 18 18 18 18 18 17 17 17 17 17 17
22 18 20 20 22 24 25 25 25 25 24 24 24 21 20 21 21 21 21 21 20 20 20 20 20 19 19 19 19 19 19 19 19 18 18 18 18 18 18 18 18 18 18 18 17 17 17 17 17
22 18 19 21 23 24 25 25 25 25 24 24 24 23 23 22 21 21 20 20 20 20 20 20 20 19 19 19 19 19 19 18 18 18 18 18 18 18 18 18 18 18 18 18 17 17 17 17 17
21 18 20 22 23 24 25 25 25 24 24 23 23 23 22 21 21 21 20 20 20 20 19 20 20 19 19 19 19 19 18 18 18 18 18 18 18 18 18 18 18 18 18 18 17 17 17 17 17
20 20 21 23 25 25 24 25 25 24 23 23 23 22 21 21 21 21 21 21 20 20 20 19 19 19 19 19 19 19 18 18 18 18 18 18 18 18 18 18 18 18 17 17 17 17 17 17 17
21 21 23 24 25 25 24 25 24 24 25 26 25 24 22 21 21 21 21 21 20 20 20 20 19 19 19 19 19 19 19 18 18 18 18 18 18 18 18 18 18 18 18 18 17 17 17 17 17
22 22 24 25 25 25 25 24 24 24 25 25 24 23 22 22 22 21 21 21 21 20 20 20 20 20 19 19 19 19 19 19 18 18 18 18 18 18 18 18 18 18 17 17 17 17 17 17 17
23 23 24 25 25 25 24 24 24 24 25 24 23 22 22 22 21 21 21 21 21 20 20 20 20 20 20 19 19 19 19 19 18 18 18 18 18 18 18 18 18 18 17 17 17 17 17 17 17
24 23 23 23 24 25 24 24 23 24 24 23 22 22 21 21 21 21 21 21 21 21 20 20 20 20 20 20 19 19 19 19 19 18 18 18 18 18 18 18 18 17 17 17 17 17 17 17 17
23 22 22 23 24 24 24 23 23 24 23 22 21 21 20 21 21 21 21 21 21 21 20 20 20 19 19 19 19 19 19 19 18 18 18 18 18 18 18 18 17 17 17 17 17 17 17 17 17
20 21 22 23 24 24 24 23 22 23 22 21 21 21 21 21 21 21 21 21 21 21 21 20 20 20 20 19 19 19 19 19 18 18 18 18 18 18 18 17 17 17 17 17 17 17 17 17 17
21 22 22 22 23 23 23 22 22 22 22 21 21 21 21 21 21 21 21 21 21 20 20 20 20 20 19 19 19 18 18 18 18 18 18 18 18 18 18 17 17 17 17 17 17 17 17 17 17
22 22 22 22 23 23 22 21 21 21 21 21 21 21 21 21 21 21 21 21 21 20 20 20 19 19 19 19 18 18 18 18 18 18 18 18 18 18 17 17 17 17 17 17 17 17 17 17 17
22 22 21 22 23 23 22 21 21 20 20 21 21 20 21 21 21 21 21 21 21 20 20 20 20 19 19 19 19 18 18 18 18 18 18 18 18 17 17 17 17 17 17 17 17 17 17 17 17
22 21 22 22 22 22 22 21 21 20 21 21 21 21 21 21 21 21 21 20 20 20 20 20 20 19 19 19 18 18 18 18 18 18 18 18 18 17 17 17 17 17 17 17 17 17 17 17 17
21 22 22 22 21 20 21 20 21 19 20 20 20 20 21 21 21 21 21 20 20 20 20 20 20 19 19 19 18 18 18 18 18 18 18 18 18 18 17 17 17 17 17 17 17 17 17 17 17
21 22 22 22 21 20 20 20 20 19 20 19 19 20 20 21 21 21 21 21 20 20 20 20 19 19 19 19 18 18 18 18 18 18 18 18 18 18 17 17 17 17 17 17 17 17 17 17 17
23 22 20 18 18 20 20 20 20 18 19 19 19 20 20 20 21 21 21 20 20 20 20 19 19 19 19 18 18 18 18 18 18 18 18 18 18 18 17 17 17 17 17 17 17 17 17 17 17
22 19 18 19 18 19 19 19 19 20 19 19 19 20 20 20 20 20 20 20 20 20 20 19 19 19 18 18 18 18 18 18 18 18 18 18 18 18 18 17 17 17 17 17 17 17 17 17 17
20 19 19 20 19 18 19 19 19 20 19 20 19 19 20 20 20 20 20 20 20 20 20 19 19 18 18 18 18 18 18 17 17 18 18 18 18 18 18 18 17 17 17 17 17 17 17 17 17
20 19 19 18 18 19 19 19 19 20 19 19 19 19 19 20 20 20 20 20 20 20 19 19 19 18 18 18 18 18 17 17 17 17 17 17 18 18 18 17 17 17 17 17 17 17 17 17 16
20 18 17 17 18 19 20 20 19 20 20 19 18 18 18 19 19 20 20 20 19 19 19 19 18 18 18 18 18 17 17 17 17 17 17 17 17 17 17 17 17 17 17 17 17 17 17 16 16
20 19 17 16 17 18 19 19 19 19 19 18 18 18 19 19 19 19 19 19 19 19 19 18 18 18 18 18 17 17 17 17 17 17 17 17 17 17 17 17 17 17 17 17 17 17 16 16 16
21 19 17 18 18 16 18 18 19 18 17 18 18 18 19 19 19 19 19 19 19 18 18 18 18 17 17 17 17 17 17 17 17 17 17 17 17 17 17 17 17 17 17 17 16 16 16 16 16
Wind_Speed
7 6 2 1 3 4 2 3 1 1 2 3 5 4 6 4 3 3 4 14 18 17 17 20 20 20 19 19 19 19 19 19 19 18 17 17 16 15 15 14 14 14 14 14 14 15 15 15 16
6 4 1 2 4 3 3 2 0 1 2 4 5 4 4 3 4 8 8 12 19 17 17 19 21 20 20 19 19 19 18 18 18 17 17 16 15 15 14 14 14 14 14 14 14 14 15 15 15
5 2 3 4 3 3 2 2 2 2 2 2 3 4 3 4 7 7 9 16 17 14 16 20 22 21 20 19 18 18 18 18 17 16 16 15 15 14 14 14 14 14 14 14 14 14 14 15 15
3 3 4 4 0 3 4 3 3 3 1 2 4 5 4 3 6 9 16 18 17 13 15 20 22 21 20 19 18 18 17 17 16 16 15 14 14 14 13 13 13 13 14 14 14 14 14 14 13
3 4 4 3 3 4 4 4 4 4 1 1 3 5 3 4 9 17 18 18 17 13 13 19 22 21 20 19 18 17 17 16 15 15 14 14 14 13 12 13 13 13 13 13 13 13 13 12 12
4 4 4 1 4 4 3 2 3 3 2 2 4 4 2 4 12 17 16 15 15 15 12 17 21 21 20 19 18 17 16 16 15 14 14 13 13 13 12 12 12 12 12 12 12 12 11 11 10
4 4 3 2 3 3 1 1 4 4 3 3 4 5 3 6 9 14 14 13 12 12 11 12 17 19 19 18 18 17 16 15 15 14 14 13 13 12 12 11 11 11 11 11 11 11 10 10 10
5 4 1 2 2 3 2 1 1 3 2 3 4 7 6 9 12 13 13 12 11 10 9 9 12 14 15 16 17 17 16 15 14 14 13 13 12 12 11 10 10 11 11 10 10 10 9 9 9
4 4 2 4 4 3 1 1 1 2 4 2 2 3 7 19 18 16 14 11 11 11 8 8 9 11 12 13 16 16 16 15 14 13 13 12 9 10 9 9 10 10 10 9 9 9 8 8 8
4 3 6 5 4 3 2 1 2 2 2 2 2 5 16 20 20 20 19 18 16 15 12 9 9 9 11 12 12 11 11 12 11 10 11 10 9 9 8 9 9 9 9 8 8 8 8 7 6
6 7 5 6 6 4 3 3 3 6 5 8 9 14 20 20 19 18 19 18 16 15 14 10 10 10 9 7 9 8 8 9 9 10 11 10 8 7 6 5 5 6 6 6 6 6 6 6 6
5 6 6 5 4 3 4 3 3 7 8 6 12 19 22 22 20 19 19 17 15 15 14 12 11 9 8 7 7 7 7 7 7 9 11 9 6 4 4 3 4 4 4 4 4 4 4 4 5
5 5 5 7 6 4 4 4 3 6 5 6 13 18 20 20 19 15 13 14 14 15 14 13 12 11 9 7 6 7 7 7 8 8 9 9 6 4 4 3 3 3 3 3 3 3 3 3 4
5 5 6 6 4 2 3 3 2 5 4 9 14 17 18 18 17 14 13 14 15 16 14 13 13 11 9 8 6 6 7 8 9 8 9 10 8 6 4 3 3 3 3 3 3 3 2 2 3
2 3 6 4 2 2 3 2 3 3 6 10 13 14 15 14 15 16 17 16 16 15 14 13 13 11 11 9 8 7 8 9 8 9 10 10 10 8 6 4 3 3 4 4 3 3 3 2 2
2 2 3 5 2 1 4 5 6 2 8 9 11 12 12 11 12 13 14 13 13 13 14 14 14 13 11 9 8 7 8 9 8 9 10 11 11 10 7 4 4 5 5 4 3 3 2 2 2
5 1 2 5 2 2 2 5 5 2 7 8 9 10 9 9 10 10 12 14 14 14 15 14 12 13 12 10 8 7 7 7 8 9 9 10 11 11 8 5 5 6 4 3 3 2 2 2 2
3 1 2 4 4 2 2 4 5 2 5 6 6 7 8 10 11 10 11 12 13 13 13 13 11 11 10 8 6 5 5 5 7 8 9 11 11 11 9 6 6 6 4 3 3 3 2 2 2
4 2 4 6 4 1 3 4 5 2 3 4 4 6 7 7 6 7 9 11 12 12 13 13 12 11 10 8 8 8 7 6 6 6 10 12 12 11 9 6 6 6 5 5 5 3 3 2 2
4 3 5 5 2 0 2 4 3 2 3 5 6 6 7 6 5 7 9 10 13 14 14 14 14 13 12 10 8 5 5 4 5 5 7 10 11 11 9 7 6 6 5 5 5 4 3 2 3
5 6 5 3 4 3 1 4 4 3 2 1 3 5 6 8 9 9 9 11 12 14 15 15 14 13 12 10 7 5 4 3 4 5 6 8 11 11 10 9 7 6 6 6 6 6 6 4 2
6 6 6 3 0 3 1 2 6 3 3 3 4 4 5 5 6 7 9 10 12 13 12 12 12 12 12 12 11 11 9 7 7 6 6 7 10 11 11 10 9 8 6 6 7 6 5 5 4
7 2 2 1 3 0 2 2 7 3 4 6 5 5 6 6 6 7 8 9 9 10 10 10 10 11 11 12 13 12 9 7 5 5 7 7 7 9 10 10 9 8 7 7 7 6 6 5 5
5 5 6 6 5 0 3 3 6 4 6 5 4 5 5 5 5 5 6 6 7 8 8 9 10 10 11 12 12 12 12 10 9 8 8 7 5 6 8 10 9 8 7 7 7 7 7 6 5
5 6 4 4 3 4 2 2 8 7 6 6 6 5 4 4 5 5 6 7 7 8 8 9 10 10 10 11 11 12 12 12 12 10 10 8 6 6 9 9 8 7 7 7 7 7 7 7 6
7 10 8 6 5 4 2 4 7 5 4 3 3 2 2 3 4 5 6 7 8 9 9 9 9 9 9 10 10 10 10 8 8 9 9 9 8 8 8 9 9 8 8 8 7 6 7 6 7
8 5 8 7 4 1 4 6 7 3 2 1 1 2 2 2 3 4 5 6 7 8 8 8 8 7 8 8 8 8 8 8 8 8 8 7 6 7 8 9 9 8 8 8 7 6 7 7 7
7 10 7 7 7 3 4 4 5 5 4 1 1 2 2 2 2 2 3 4 5 6 6 6 7 7 6 7 7 7 7 7 6 6 8 8 8 7 8 9 8 8 7 7 7 6 6 7 6
5 5 6 6 6 7 4 7 6 7 5 3 3 2 2 3 3 3 2 3 5 5 5 5 6 6 6 6 5 5 6 6 6 7 8 7 7 8 8 8 8 8 8 7 7 7 7 8 7
6 8 8 7 4 5 5 7 4 3 3 2 2 1 2 3 3 3 4 4 4 5 5 5 5 6 6 5 5 5 5 5 6 6 6 7 7 7 8 7 7 8 7 7 8 8 8 8 8
Wind_Direction
165 143 138 114 54 45 351 294 263 96 130 145 146 143 141 144 169 178 128 141 137 144 150 148 145 140 135 131 129 127 126 126 127 126 127 127 126 125 125 124 122 119 118 116 114 114 115 116 116
141 147 124 66 73 53 330 308 314 314 134 113 103 96 98 88 84 111 130 143 141 144 147 148 147 143 139 136 133 131 130 129 129 129 129 129 129 128 127 125 123 120 119 118 116 116 117 118 119
151 160 95 70 87 161 253 294 124 57 93 107 99 79 95 128 130 139 146 143 139 142 146 152 149 147 143 140 138 136 134 133 132 132 132 131 131 129 127 126 124 122 121 121 119 118 119 120 120
131 68 60 68 194 231 224 235 159 118 29 45 110 89 70 85 141 142 140 143 141 142 147 155 152 150 147 145 143 140 138 136 136 135 134 134 132 130 129 127 126 125 124 122 121 120 120 122 123
70 82 60 26 278 258 242 231 180 150 163 99 115 106 60 23 114 133 141 146 145 143 149 156 154 153 151 150 148 146 143 141 140 139 138 136 134 133 132 130 128 126 124 122 121 121 122 123 124
61 69 78 319 287 276 257 215 153 136 129 112 120 107 64 104 127 141 144 146 147 147 148 156 158 157 156 155 153 151 149 148 146 145 142 140 138 136 135 132 130 128 125 124 121 121 123 121 125
109 102 149 230 285 302 316 111 152 157 149 170 139 116 115 134 140 140 139 140 143 146 147 153 158 160 160 160 158 157 155 153 151 149 146 144 143 140 138 135 133 132 130 127 127 127 126 125 127
131 107 125 245 242 273 311 48 126 148 152 121 127 149 171 162 142 132 131 136 143 147 150 150 152 155 158 162 163 161 161 159 157 153 151 150 148 145 143 139 138 137 135 133 132 132 130 126 128
108 81 214 223 210 250 269 24 325 91 118 124 133 167 158 143 141 139 141 144 154 158 157 153 150 150 152 159 167 166 165 164 160 158 157 151 142 142 141 143 143 141 141 138 137 135 131 123 122
112 161 226 223 213 233 264 225 212 139 151 153 98 106 134 146 153 157 161 165 170 171 169 162 155 151 153 164 164 163 162 161 156 153 147 138 136 140 144 153 151 147 145 142 140 135 124 113 109
168 202 232 243 234 234 253 253 206 165 210 206 181 155 153 158 165 169 171 173 175 173 173 169 163 158 158 155 152 152 150 149 148 147 143 140 136 136 137 141 141 138 135 122 123 114 113 117 119
194 242 237 258 242 230 222 226 217 200 222 201 170 160 162 169 174 178 177 176 173 174 178 172 168 163 161 155 154 151 149 150 150 152 150 145 139 137 140 136 124 115 116 113 109 112 121 125 131
226 264 255 252 270 240 220 223 216 245 243 144 149 159 169 177 180 180 177 173 172 177 177 176 173 171 164 155 160 161 158 160 160 159 161 159 155 156 157 152 137 135 130 126 118 118 126 126 135
232 250 280 287 277 235 196 250 192 255 166 143 156 170 178 182 179 175 174 176 179 179 179 176 179 177 168 167 166 164 165 164 165 170 175 173 171 169 167 168 159 159 159 152 144 139 139 134 139
273 300 319 305 280 245 130 315 244 239 145 155 168 177 181 184 183 185 183 181 181 179 177 179 182 177 176 173 173 170 171 170 174 180 183 183 184 180 176 175 178 182 172 153 137 124 120 131 137
18 39 332 301 312 308 130 251 272 164 151 167 174 180 185 191 193 191 185 182 179 175 177 182 185 182 182 177 173 171 174 175 181 184 186 189 191 187 177 179 191 184 166 155 146 135 128 133 140
30 43 283 305 330 43 123 252 283 169 161 174 181 183 184 190 195 193 185 183 180 180 179 181 183 182 184 179 175 173 173 177 182 185 185 190 192 190 184 184 187 174 161 163 169 147 144 156 156
213 216 285 282 301 359 301 267 289 211 172 179 182 182 185 195 202 190 183 181 180 180 180 181 182 179 176 172 167 165 169 178 180 185 187 187 191 192 186 182 179 167 159 164 162 139 121 133 150
171 207 270 268 282 298 273 277 280 223 178 182 188 189 193 201 201 186 184 180 178 179 180 183 184 180 176 178 180 181 188 188 188 190 191 190 190 187 182 184 175 171 174 176 164 143 136 127 124
195 251 273 297 340 67 279 287 288 237 210 201 199 199 196 194 197 195 186 182 183 185 185 184 187 182 182 187 183 178 173 182 188 187 189 190 188 185 188 179 181 178 172 169 169 152 142 143 150
219 213 236 265 341 6 18 329 312 304 314 227 206 199 195 196 198 198 191 188 185 189 190 189 188 184 182 178 168 159 145 137 171 186 194 194 190 189 186 182 179 182 179 181 182 170 158 161 165
244 224 209 233 20 298 31 284 291 297 302 247 231 214 213 208 202 200 194 190 190 194 190 185 184 182 182 179 180 182 184 192 194 186 190 191 188 188 187 182 184 184 183 185 187 180 168 156 167
214 188 168 186 162 308 358 171 282 313 279 261 245 221 216 210 205 206 200 192 185 182 182 183 183 186 185 184 187 190 194 197 178 173 180 188 190 192 188 185 186 187 190 191 184 174 175 172 171
172 78 55 50 79 356 260 175 273 255 242 258 244 224 221 210 204 205 191 173 168 170 174 180 186 190 185 185 190 192 192 188 179 184 188 193 193 193 193 190 190 190 189 187 187 182 182 184 178
130 103 43 12 24 249 275 190 250 255 242 240 246 237 228 211 196 192 179 173 170 170 173 178 182 188 185 187 193 196 194 190 193 193 194 192 192 197 198 194 191 191 191 188 183 184 190 187 186
173 146 157 180 205 260 314 232 256 266 263 251 234 219 203 200 191 193 191 178 175 175 175 177 182 186 185 190 195 195 191 193 199 198 196 198 200 199 192 192 192 192 190 191 184 189 195 191 196
142 173 162 133 141 125 280 283 302 288 310 355 136 138 176 192 182 180 184 180 178 176 176 178 180 181 183 187 187 187 188 193 197 195 195 200 200 198 191 190 189 192 191 190 186 195 198 192 199
142 142 110 127 146 201 278 276 251 270 272 247 197 202 201 151 133 148 174 177 172 168 166 162 166 174 176 181 185 185 186 191 195 192 198 201 198 194 186 189 190 192 192 191 189 197 199 194 201
114 108 110 115 146 153 208 262 229 227 231 226 227 210 182 152 152 155 149 143 142 143 151 155 162 161 166 177 181 182 186 189 189 197 203 201 195 189 188 188 189 193 193 191 194 204 198 198 200
145 153 144 147 183 163 166 255 274 216 220 196 203 187 149 139 136 141 141 132 134 143 152 159 167 170 174 176 175 178 179 179 188 198 202 195 191 187 187 182 187 194 195 192 195 206 201 197 199
Height
1487 1487 1488 1490 1492 1499 1498 1490 1482 1480 1480 1480 1481 1483 1485 1488 1493 1497 1492 1494 1500 1504 1509 1513 1516 1519 1522 1524 1526 1527 1529 1531 1532 1534 1535 1537 1538 1540 1541 1542 1543 1544 1545 1547 1548 1549 1550 1551 1552
1487 1488 1490 1490 1497 1507 1500 1486 1483 1481 1479 1480 1482 1483 1485 1487 1488 1489 1490 1496 1501 1505 1509 1513 1517 1520 1523 1525 1527 1529 1531 1532 1534 1536 1537 1539 1540 1542 1543 1544 1545 1546 1547 1548 1549 1551 1552 1553 1554
1487 1488 1490 1492 1499 1504 1496 1484 1481 1480 1480 1480 1482 1484 1485 1487 1488 1489 1492 1497 1502 1506 1511 1514 1518 1521 1524 1526 1528 1530 1532 1534 1536 1537 1539 1540 1542 1543 1545 1546 1547 1548 1549 1550 1552 1553 1554 1555 1557
1488 1490 1491 1496 1498 1492 1487 1482 1480 1480 1481 1481 1482 1485 1487 1489 1489 1491 1493 1498 1503 1507 1512 1515 1519 1522 1525 1527 1530 1532 1533 1535 1537 1539 1541 1542 1544 1545 1546 1548 1549 1550 1551 1553 1554 1555 1556 1558 1559
1488 1489 1495 1501 1497 1488 1481 1479 1478 1480 1481 1482 1483 1485 1488 1490 1490 1492 1495 1500 1504 1508 1513 1516 1520 1523 1526 1528 1531 1533 1535 1537 1538 1540 1542 1544 1545 1547 1548 1549 1551 1552 1553 1555 1556 1557 1558 1560 1561
1488 1490 1502 1504 1495 1485 1480 1478 1479 1480 1481 1482 1483 1485 1489 1490 1492 1495 1498 1501 1506 1509 1513 1517 1521 1524 1527 1529 1532 1534 1536 1538 1540 1542 1543 1545 1547 1548 1550 1551 1552 1554 1555 1557 1558 1559 1561 1562 1564
1489 1494 1500 1498 1494 1486 1480 1478 1479 1479 1481 1483 1483 1486 1488 1491 1493 1496 1499 1503 1507 1511 1514 1518 1521 1524 1528 1530 1533 1535 1537 1539 1541 1543 1545 1546 1548 1550 1551 1553 1554 1556 1557 1558 1560 1561 1563 1564 1565
1488 1493 1497 1497 1493 1487 1479 1479 1479 1480 1481 1483 1484 1485 1487 1490 1493 1497 1501 1504 1508 1512 1515 1518 1521 1525 1528 1531 1533 1536 1538 1540 1542 1544 1546 1548 1549 1551 1552 1554 1555 1557 1558 1560 1562 1563 1565 1566 1567
1488 1497 1501 1494 1489 1484 1479 1479 1480 1480 1480 1482 1483 1484 1485 1488 1492 1496 1500 1504 1508 1511 1515 1518 1521 1524 1527 1531 1534 1536 1539 1541 1543 1545 1547 1549 1550 1552 1554 1555 1557 1558 1560 1561 1563 1565 1566 1568 1569
1487 1497 1492 1484 1481 1480 1478 1479 1479 1479 1480 1481 1482 1483 1485 1487 1490 1494 1497 1501 1505 1509 1513 1517 1521 1524 1527 1530 1534 1536 1539 1541 1543 1545 1547 1549 1551 1553 1555 1556 1558 1560 1561 1563 1564 1566 1567 1569 1571
1485 1488 1482 1479 1478 1478 1477 1477 1477 1478 1480 1478 1478 1480 1483 1486 1489 1492 1495 1499 1503 1508 1512 1516 1520 1524 1527 1530 1533 1536 1539 1541 1543 1546 1548 1550 1552 1554 1555 1557 1559 1561 1562 1564 1565 1567 1569 1570 1572
1483 1480 1479 1476 1476 1476 1476 1475 1476 1475 1474 1474 1476 1478 1480 1483 1486 1490 1493 1497 1502 1507 1511 1515 1519 1523 1526 1529 1532 1535 1538 1541 1544 1546 1548 1551 1553 1554 1556 1558 1560 1562 1563 1565 1566 1568 1570 1571 1573
1481 1478 1476 1474 1473 1473 1473 1474 1474 1472 1472 1473 1475 1478 1479 1482 1485 1489 1493 1497 1501 1505 1510 1514 1518 1522 1525 1529 1532 1535 1538 1541 1544 1546 1549 1551 1553 1555 1557 1559 1561 1563 1564 1566 1568 1569 1571 1572 1574
1477 1476 1474 1472 1471 1471 1472 1472 1473 1471 1471 1472 1474 1476 1478 1481 1484 1488 1492 1495 1499 1504 1508 1513 1517 1521 1524 1528 1531 1534 1538 1541 1544 1546 1549 1552 1554 1556 1558 1560 1561 1563 1565 1567 1568 1570 1571 1573 1574
1476 1476 1474 1471 1470 1470 1472 1475 1471 1469 1470 1471 1473 1475 1478 1481 1483 1485 1489 1493 1498 1502 1506 1511 1516 1520 1523 1527 1530 1534 1537 1540 1543 1546 1549 1551 1554 1556 1558 1560 1562 1564 1565 1567 1569 1570 1572 1573 1574
1475 1480 1484 1474 1470 1470 1475 1481 1470 1469 1469 1471 1473 1475 1478 1480 1482 1485 1489 1493 1497 1501 1505 1509 1513 1518 1522 1526 1529 1532 1536 1540 1543 1546 1548 1551 1554 1556 1558 1560 1562 1564 1565 1567 1569 1570 1571 1573 1574
1485 1490 1487 1479 1471 1470 1474 1478 1469 1468 1469 1470 1473 1475 1477 1480 1482 1484 1488 1492 1496 1499 1503 1507 1511 1515 1520 1524 1528 1531 1535 1538 1542 1545 1547 1550 1553 1555 1557 1559 1562 1563 1565 1566 1568 1570 1571 1572 1574
1491 1488 1486 1483 1473 1472 1475 1475 1469 1469 1469 1471 1472 1474 1476 1478 1479 1482 1486 1490 1494 1498 1501 1505 1509 1514 1518 1522 1526 1530 1533 1537 1540 1543 1546 1549 1551 1554 1556 1558 1560 1562 1564 1566 1567 1569 1570 1572 1573
1480 1484 1486 1481 1472 1474 1476 1475 1470 1468 1470 1471 1472 1473 1475 1476 1479 1482 1485 1488 1492 1495 1498 1502 1507 1512 1516 1520 1523 1527 1530 1534 1538 1541 1544 1547 1549 1552 1554 1557 1559 1561 1562 1564 1566 1568 1569 1571 1572
1479 1484 1484 1478 1471 1473 1476 1476 1470 1469 1469 1469 1470 1471 1473 1475 1477 1479 1481 1484 1487 1491 1495 1499 1504 1508 1512 1516 1520 1524 1528 1532 1535 1538 1541 1544 1547 1550 1552 1555 1557 1559 1561 1563 1564 1566 1567 1569 1571
1478 1482 1481 1480 1475 1474 1477 1481 1475 1470 1469 1469 1469 1469 1470 1472 1474 1476 1478 1481 1484 1488 1491 1495 1500 1505 1509 1514 1518 1522 1526 1529 1532 1535 1538 1541 1544 1547 1549 1552 1554 1557 1559 1560 1562 1564 1565 1567 1569
1480 1471 1473 1476 1484 1490 1484 1497 1480 1474 1471 1468 1468 1468 1469 1471 1472 1474 1475 1478 1481 1484 1489 1493 1497 1501 1505 1510 1514 1517 1520 1523 1527 1530 1534 1538 1541 1544 1547 1549 1552 1554 1556 1558 1560 1562 1563 1565 1567
1470 1466 1470 1475 1483 1491 1488 1495 1487 1476 1473 1468 1466 1466 1467 1468 1470 1471 1473 1475 1479 1482 1486 1490 1494 1497 1502 1506 1509 1512 1516 1520 1524 1528 1531 1535 1537 1540 1543 1546 1548 1550 1553 1555 1557 1559 1561 1563 1564
1462 1469 1476 1485 1492 1501 1491 1495 1492 1479 1472 1466 1464 1464 1465 1466 1468 1470 1472 1474 1477 1481 1484 1487 1491 1494 1498 1502 1506 1509 1513 1516 1520 1524 1527 1530 1534 1537 1540 1542 1545 1547 1550 1552 1554 1556 1558 1560 1562
1463 1482 1501 1502 1510 1505 1491 1493 1489 1469 1465 1463 1462 1462 1464 1465 1467 1468 1470 1473 1475 1478 1481 1484 1488 1492 1495 1498 1501 1505 1509 1512 1516 1519 1523 1526 1529 1532 1535 1538 1541 1544 1547 1549 1551 1553 1555 1557 1558
1465 1474 1498 1508 1510 1504 1492 1493 1478 1463 1462 1461 1461 1462 1462 1463 1465 1467 1469 1471 1473 1476 1479 1482 1485 1489 1492 1495 1498 1502 1505 1508 1512 1515 1519 1522 1525 1529 1532 1535 1538 1540 1543 1546 1548 1550 1552 1553 1555
1465 1471 1471 1492 1498 1503 1498 1486 1471 1461 1461 1460 1460 1461 1461 1462 1464 1466 1468 1470 1472 1474 1477 1480 1484 1487 1490 1493 1495 1498 1501 1504 1508 1511 1515 1518 1522 1525 1528 1531 1534 1537 1540 1542 1544 1546 1548 1550 1551
1452 1463 1479 1491 1505 1507 1496 1489 1483 1467 1463 1461 1461 1460 1461 1462 1463 1465 1467 1469 1471 1473 1476 1479 1482 1485 1488 1490 1493 1495 1498 1501 1505 1508 1511 1514 1517 1521 1524 1526 1530 1533 1536 1538 1540 1542 1544 1546 1548
1458 1465 1474 1487 1490 1503 1505 1493 1465 1463 1461 1461 1460 1460 1461 1461 1463 1465 1466 1468 1470 1473 1476 1478 1481 1484 1486 1489 1491 1493 1496 1499 1502 1504 1507 1510 1513 1516 1519 1522 1525 1529 1532 1534 1536 1538 1540 1542 1544
1447 1456 1468 1481 1489 1492 1496 1488 1458 1458 1458 1458 1459 1460 1461 1462 1463 1465 1466 1468 1470 1472 1475 1477 1480 1482 1485 1487 1489 1491 1494 1497 1499 1502 1504 1507 1509 1512 1515 1519 1522 1525 1528 1530 1532 1534 1536 1538 1540